• In Österreich
  • Länderverzeichnis
  • Für 7 Tage
  • Wassertemperatur
  • Satellitenkarten
  • Wetterkarte
  • News
  • Widgets
  • user-avatar
    Anmelden

    Stündliche Wetter Andrychów

    Heute, 23 Februar, Freitag

    Zeit Temperatur Niederschläge Wind Luftdruck Luftfeuchtigkeit
    00:00 -7°C° 0 mm 3 m/S 733 mmHg 85%
    01:00 -8°C° 0 mm 3 m/S 732 mmHg 86%
    02:00 -8°C° 0 mm 3 m/S 732 mmHg 87%
    03:00 -8°C° 0 mm 3 m/S 732 mmHg 88%
    04:00 -8°C° 0 mm 3 m/S 732 mmHg 88%
    05:00 -7°C° 0 mm 3 m/S 732 mmHg 89%
    06:00 -7°C° 0 mm 3 m/S 732 mmHg 89%
    07:00 -7°C° 0 mm 3 m/S 732 mmHg 89%
    08:00 -7°C° 0 mm 3 m/S 732 mmHg 86%
    09:00 -6°C° 0 mm 3 m/S 732 mmHg 83%
    10:00 -5°C° 0 mm 3 m/S 733 mmHg 80%
    11:00 -5°C° 0 mm 3 m/S 732 mmHg 78%
    12:00 -4°C° 0 mm 3 m/S 732 mmHg 76%
    13:00 -4°C° 0 mm 3 m/S 732 mmHg 74%
    14:00 -4°C° 0 mm 3 m/S 732 mmHg 74%
    15:00 -4°C° 0 mm 3 m/S 732 mmHg 74%
    16:00 -4°C° 0 mm 3 m/S 732 mmHg 74%
    17:00 -5°C° 0 mm 3 m/S 732 mmHg 76%
    18:00 -5°C° 0 mm 3 m/S 733 mmHg 77%
    19:00 -5°C° 0 mm 2 m/S 733 mmHg 79%
    20:00 -6°C° 0 mm 2 m/S 733 mmHg 80%
    21:00 -6°C° 0 mm 2 m/S 733 mmHg 81%
    22:00 -7°C° 0 mm 2 m/S 733 mmHg 81%
    23:00 -7°C° 0 mm 2 m/S 733 mmHg 82%

    Morgen, 24 Februar, Samstag

    Zeit Temperatur Niederschläge Wind Luftdruck Luftfeuchtigkeit
    00:00 -6°C° 0 mm 1 m/S 733 mmHg 82%
    01:00 -6°C° 0 mm 1 m/S 733 mmHg 82%
    02:00 -7°C° 0 mm 1 m/S 733 mmHg 82%
    03:00 -7°C° 0 mm 1 m/S 733 mmHg 81%
    04:00 -7°C° 0 mm 1 m/S 732 mmHg 81%
    05:00 -7°C° 0 mm 1 m/S 732 mmHg 80%
    06:00 -7°C° 0 mm 1 m/S 732 mmHg 79%
    07:00 -9°C° 0 mm 2 m/S 732 mmHg 79%
    08:00 -8°C° 0 mm 2 m/S 732 mmHg 76%
    09:00 -8°C° 0 mm 3 m/S 732 mmHg 74%
    10:00 -7°C° 0 mm 3 m/S 733 mmHg 72%
    11:00 -8°C° 0,1 mm 4 m/S 733 mmHg 69%
    12:00 -7°C° 0,1 mm 4 m/S 733 mmHg 67%
    13:00 -7°C° 0,1 mm 5 m/S 733 mmHg 65%
    14:00 -7°C° 0,1 mm 5 m/S 733 mmHg 64%
    15:00 -8°C° 0,1 mm 5 m/S 733 mmHg 64%
    16:00 -10°C° 0,1 mm 6 m/S 734 mmHg 64%
    17:00 -10°C° 0 mm 5 m/S 734 mmHg 65%
    18:00 -10°C° 0 mm 4 m/S 734 mmHg 66%
    19:00 -11°C° 0 mm 4 m/S 735 mmHg 67%
    20:00 -12°C° 0 mm 4 m/S 735 mmHg 69%
    21:00 -12°C° 0 mm 4 m/S 735 mmHg 71%
    22:00 -12°C° 0 mm 4 m/S 736 mmHg 73%
    23:00 -13°C° 0 mm 3 m/S 736 mmHg 75%

    übermorgen, 25 Februar, Sonntag

    Zeit Temperatur Niederschläge Wind Luftdruck Luftfeuchtigkeit
    00:00 -13°C° 0 mm 3 m/S 736 mmHg 76%
    01:00 -13°C° 0 mm 3 m/S 736 mmHg 77%
    02:00 -13°C° 0 mm 3 m/S 736 mmHg 78%
    03:00 -13°C° 0 mm 3 m/S 736 mmHg 79%
    04:00 -14°C° 0 mm 3 m/S 736 mmHg 80%
    05:00 -14°C° 0 mm 3 m/S 736 mmHg 80%
    06:00 -14°C° 0 mm 3 m/S 736 mmHg 80%
    07:00 -14°C° 0 mm 3 m/S 736 mmHg 80%
    08:00 -13°C° 0 mm 3 m/S 737 mmHg 76%
    09:00 -13°C° 0 mm 3 m/S 737 mmHg 72%
    10:00 -12°C° 0 mm 3 m/S 737 mmHg 69%
    11:00 -12°C° 0 mm 3 m/S 737 mmHg 67%
    12:00 -10°C° 0 mm 3 m/S 736 mmHg 65%
    13:00 -10°C° 0 mm 3 m/S 736 mmHg 63%
    14:00 -10°C° 0 mm 3 m/S 736 mmHg 64%
    15:00 -10°C° 0 mm 3 m/S 736 mmHg 65%
    16:00 -10°C° 0 mm 3 m/S 736 mmHg 66%
    17:00 -10°C° 0 mm 3 m/S 736 mmHg 69%
    18:00 -12°C° 0 mm 3 m/S 736 mmHg 72%
    19:00 -12°C° 0 mm 3 m/S 736 mmHg 75%
    20:00 -12°C° 0 mm 2 m/S 736 mmHg 77%
    21:00 -12°C° 0 mm 2 m/S 736 mmHg 79%
    22:00 -12°C° 0 mm 2 m/S 736 mmHg 80%
    23:00 -13°C° 0 mm 2 m/S 736 mmHg 81%

    26 Februar, Montag

    Zeit Temperatur Niederschläge Wind Luftdruck Luftfeuchtigkeit
    00:00 -13°C° 0 mm 2 m/S 736 mmHg 82%
    01:00 -13°C° 0 mm 2 m/S 736 mmHg 82%
    02:00 -13°C° 0 mm 2 m/S 735 mmHg 83%
    03:00 -14°C° 0 mm 2 m/S 735 mmHg 83%
    04:00 -14°C° 0 mm 2 m/S 735 mmHg 84%
    05:00 -15°C° 0 mm 3 m/S 735 mmHg 84%
    06:00 -15°C° 0 mm 3 m/S 735 mmHg 84%
    07:00 -15°C° 0 mm 3 m/S 735 mmHg 84%
    08:00 -15°C° 0 mm 3 m/S 735 mmHg 79%
    09:00 -15°C° 0 mm 4 m/S 735 mmHg 73%
    10:00 -14°C° 0 mm 4 m/S 735 mmHg 68%
    11:00 -12°C° 0 mm 4 m/S 734 mmHg 67%
    12:00 -12°C° 0 mm 4 m/S 734 mmHg 65%
    13:00 -12°C° 0 mm 5 m/S 733 mmHg 64%
    14:00 -13°C° 0 mm 5 m/S 733 mmHg 65%
    15:00 -13°C° 0 mm 5 m/S 733 mmHg 66%
    16:00 -13°C° 0 mm 5 m/S 732 mmHg 67%
    17:00 -13°C° 0 mm 5 m/S 732 mmHg 69%
    18:00 -14°C° 0 mm 5 m/S 732 mmHg 72%
    19:00 -15°C° 0 mm 4 m/S 732 mmHg 75%
    20:00 -15°C° 0 mm 4 m/S 732 mmHg 76%
    21:00 -15°C° 0 mm 5 m/S 732 mmHg 77%
    22:00 -15°C° 0 mm 5 m/S 732 mmHg 77%
    23:00 -17°C° 0 mm 5 m/S 731 mmHg 78%

    27 Februar, Dienstag

    Zeit Temperatur Niederschläge Wind Luftdruck Luftfeuchtigkeit
    00:00 -17°C° 0 mm 5 m/S 731 mmHg 78%
    01:00 -17°C° 0 mm 5 m/S 731 mmHg 79%
    02:00 -18°C° 0 mm 5 m/S 731 mmHg 79%
    03:00 -18°C° 0 mm 5 m/S 730 mmHg 79%
    04:00 -18°C° 0 mm 5 m/S 730 mmHg 79%
    05:00 -18°C° 0 mm 5 m/S 730 mmHg 79%
    06:00 -18°C° 0 mm 5 m/S 729 mmHg 79%
    07:00 -18°C° 0 mm 5 m/S 729 mmHg 79%
    08:00 -18°C° 0,1 mm 5 m/S 729 mmHg 77%
    09:00 -17°C° 0,1 mm 5 m/S 729 mmHg 75%
    10:00 -17°C° 0,1 mm 5 m/S 729 mmHg 73%
    11:00 -15°C° 0,1 mm 5 m/S 729 mmHg 73%
    12:00 -14°C° 0,1 mm 5 m/S 728 mmHg 73%
    13:00 -14°C° 0,1 mm 5 m/S 728 mmHg 72%
    14:00 -14°C° 0,1 mm 5 m/S 728 mmHg 74%
    15:00 -14°C° 0,1 mm 5 m/S 728 mmHg 76%
    16:00 -14°C° 0,1 mm 5 m/S 727 mmHg 78%
    17:00 -14°C° 0,1 mm 4 m/S 728 mmHg 80%
    18:00 -15°C° 0,1 mm 4 m/S 728 mmHg 82%
    19:00 -15°C° 0,1 mm 4 m/S 728 mmHg 84%
    20:00 -15°C° 0,1 mm 4 m/S 728 mmHg 84%
    21:00 -15°C° 0,1 mm 4 m/S 728 mmHg 85%
    22:00 -14°C° 0,1 mm 3 m/S 728 mmHg 86%
    23:00 -15°C° 0,1 mm 3 m/S 728 mmHg 86%

    28 Februar, Mittwoch

    Zeit Temperatur Niederschläge Wind Luftdruck Luftfeuchtigkeit
    00:00 -15°C° 0,1 mm 3 m/S 728 mmHg 86%
    01:00 -15°C° 0,1 mm 3 m/S 728 mmHg 86%
    02:00 -15°C° 0,1 mm 3 m/S 728 mmHg 87%
    03:00 -15°C° 0,1 mm 3 m/S 728 mmHg 87%
    04:00 -14°C° 0,1 mm 2 m/S 728 mmHg 88%
    05:00 -14°C° 0,1 mm 2 m/S 728 mmHg 87%
    06:00 -14°C° 0,1 mm 2 m/S 728 mmHg 87%
    07:00 -14°C° 0,1 mm 2 m/S 728 mmHg 87%
    08:00 -14°C° 0,1 mm 2 m/S 728 mmHg 83%
    09:00 -13°C° 0,1 mm 2 m/S 728 mmHg 79%
    10:00 -12°C° 0,1 mm 2 m/S 729 mmHg 75%
    11:00 -10°C° 0 mm 2 m/S 729 mmHg 72%
    12:00 -9°C° 0 mm 2 m/S 729 mmHg 70%
    13:00 -9°C° 0 mm 2 m/S 728 mmHg 68%
    14:00 -9°C° 0 mm 2 m/S 728 mmHg 70%
    15:00 -9°C° 0 mm 2 m/S 728 mmHg 71%
    16:00 -9°C° 0 mm 2 m/S 728 mmHg 73%
    17:00 -10°C° 0 mm 2 m/S 729 mmHg 78%
    18:00 -12°C° 0 mm 2 m/S 729 mmHg 82%
    19:00 -11°C° 0 mm 1 m/S 729 mmHg 87%
    20:00 -11°C° 0 mm 1 m/S 729 mmHg 87%
    21:00 -12°C° 0 mm 1 m/S 729 mmHg 88%
    22:00 -12°C° 0 mm 1 m/S 730 mmHg 88%
    23:00 -12°C° 0 mm 1 m/S 730 mmHg 88%
    Mehr zeigen